Regional Weather Roundup
Issued by NWS Jackson, KY

Home | Current Version | Previous Version | Text Only | Print | Product List | Glossary Off
Versions: 1 2 3 4 5 6 7 8 9 10 11 12 13 14 15 16 17 18 19 20 21 22 23 24 25 26 27 28 29 30 31 32 33 34 35 36 37 38 39 40 41 42 43 44 45 46 47 48 49 50

000
ASUS43 KJKL 170011
RWRJKL

EAST KENTUCKY HOURLY WEATHER ROUNDUP
NATIONAL WEATHER SERVICE JACKSON KY
800 PM EDT WED APR 16 2014

NOTE: "FAIR" INDICATES FEW OR NO CLOUDS BELOW 12,000 FEET WITH
NO SIGNIFICANT WEATHER AND/OR OBSTRUCTIONS TO VISIBILITY.

* THESE REPORTS ARE NOT UNDER NWS QUALITY CONTROL AND MAY NOT
  REPORT WEATHER SUCH AS PRECIPITATION AND FOG.

KYZ079-080-083-085-087-088-110-112-115-119-120-170100
...EASTERN KENTUCKY...

CITY           SKY/WX    TMP DP  RH WIND       PRES   REMARKS
JACKSON        PTCLDY    50  18  28 VRB3      30.24F
6HR MIN TEMP:  45; 6HR MAX TEMP:  55;

LONDON         PTCLDY    55  22  27 NE5       30.21S
6HR MIN TEMP:  49; 6HR MAX TEMP:  58;

SOMERSET*      PTCLDY    54  21  28 E5        30.22S
MONTICELLO*    PTCLDY    52  33  48 NE5       30.21S
6HR MIN TEMP:  50; 6HR MAX TEMP:  58;

MIDDLESBORO*   CLEAR     57  24  28 CALM      30.22S
6HR MIN TEMP:  51; 6HR MAX TEMP:  60;

HARLAN APT*    CLEAR     55  18  22 SE6       30.22R
BLACK MTN*       N/A     43  23  45 SE3         N/A
PIKEVILLE APT* CLEAR     48  21  34 NE5       30.25S
BIG SANDY*     CLEAR     50  23  34 E5        30.26S
6HR MIN TEMP:  47; 6HR MAX TEMP:  55;

MOREHEAD APT*  CLEAR     48  18  29 MISG      30.28S
$$

KYZ035-036-041-042-044-050-067-078-099-170100
...CENTRAL KENTUCKY...

CITY           SKY/WX    TMP DP  RH WIND       PRES   REMARKS
MT STERLING*   CLEAR     50  21  32 SE8       30.25F
FLEMING/MASON* CLEAR     46  23  39 E9        30.27F
DANVILLE*      PTCLDY    50  28  43 E5        30.22F
LEXINGTON      PTCLDY    51  21  30 E10       30.23F
6HR MIN TEMP:  47; 6HR MAX TEMP:  54;

FRANKFORT      PTCLDY    49  23  36 E8        30.22F
6HR MIN TEMP:  47; 6HR MAX TEMP:  52;

$$

KYZ091>093-OHZ055-061-077-WVZ005-015-034-035-042-170100
...SOUTHERN OHIO/WEST VIRGINIA...

CITY           SKY/WX    TMP DP  RH WIND       PRES   REMARKS
COVINGTON      MOCLDY    48  20  32 SE10      30.25S
COLUMBUS       MOCLDY    47  21  35 E9        30.32F
DAYTON         MOCLDY    46  22  38 E14       30.28S
WILMINGTON     PTCLDY    44  24  45 E7        30.27F
HUNTINGTON     PTCLDY    48  19  31 E6        30.28F
CHARLESTON     PTCLDY    49  20  31 NE5       30.29F
PINEVILLE*     CLEAR     49  31  49 MISG      30.31S
BECKLEY        CLEAR     47  21  35 SE7       30.28S
BLUEFIELD      CLEAR     48  16  27 VRB3      30.28S
$$

VAZ002-007-008-TNZ017-027-036-066-071-170100
...SOUTHWEST VIRGINIA/EAST TENNESSEE...

CITY           SKY/WX    TMP DP  RH WIND       PRES   REMARKS
WISE*          CLEAR     50  18  27 CALM      30.24S
ABINGDON*      CLEAR     55  17  22 S10       30.24R
BRISTOL        PTCLDY    57  15  19 E8        30.22S
KNOXVILLE      PTCLDY    55  29  36 N6        30.20R
OAK RIDGE      CLEAR     57  27  31 E5        30.22R
CROSSVILLE     CLEAR     54  26  34 S6        30.20S
NASHVILLE      MOCLDY    58  27  30 E5        30.17S
$$

...KEY TO REMARKS...
VSB - VISIBILITY IN MILES
WCI - WIND CHILL INDEX
HX  - HEAT INDEX

$$



USA.gov is the U.S. government's official web portal to all federal, state and local government web resources and services.